Regional Weather Roundup
Issued by NWS Midland/Odessa, TX

Skip options and go directly to product.
Home | Oldest Version | Next Version | Current Version | All | Text Only | Save Text | Print | Product List | Glossary On

Skip product version selection by date and time.   
836
ASUS44 KMAF 150602
RWRMAF
MIDLAND AREA WEATHER ROUNDUP
NATIONAL WEATHER SERVICE MIDLAND TX
100 AM CDT MON SEP 15 2014

...IN SOUTHWEST TEXAS AND SOUTHEAST NEW MEXICO...

CITY           SKY/WX    TMP DP  RH WIND       PRES   REMARKS
ALPINE         CLOUDY    62  59  90 SE7       30.30S
ANDREWS        CLOUDY    63  62  98 S5        30.21S
ARTESIA        NOT AVBL
BIG SPRING     CLOUDY    68  65  92 CALM      30.21S
CARLSBAD       CLOUDY    64  64 100 S6        30.19S
DRYDEN           N/A     71  65  81 SE7       30.16F
FORT STOCKTON  CLOUDY    65  62  90 SE8       30.19F
GUAD PASS      FOG       57  57 100 NE12      30.29S VSB 1/4
HOBBS          CLOUDY    63  63 100 S15       30.22S
MARFA          CLOUDY    61  59  94 SE6       30.27S
MIDLAND AIRPK  NOT AVBL
MIDLAND INTL   CLOUDY    65  64  97 SE5       30.19F
ODESSA         CLOUDY    65  62  90 S7        30.20F
PECOS          MOCLDY    64  62  92 E6        30.18R
PRESIDIO       FAIR      69  61  75 NE12G18   30.15S
SEMINOLE       CLOUDY    62  61  96 S7        30.21F
SNYDER         CLOUDY    68  65  90 S3        30.19S
WINK           PTCLDY    66  63  90 SE12      30.17S
$$
...OTHER STATIONS IN TEXAS...

CITY           SKY/WX    TMP DP  RH WIND       PRES   REMARKS
ABILENE        CLOUDY    74  64  71 CALM      30.16F
AMARILLO       CLOUDY    63  59  87 SW17G25   30.17S
AUSTIN         MOCLDY    69  67  93 W5        30.13S
BROWNSVILLE    PTCLDY    76  75  97 N6        30.04F
CORPUS CHRISTI CLOUDY    74  69  85 N7        30.09S
DALLAS FTW     CLOUDY    73  64  73 CALM      30.13F
DEL RIO        CLOUDY    71  67  87 CALM      30.13F
EL PASO        PTCLDY    70  58  65 E6        30.15S
HOUSTON INT    MOCLDY    72  69  90 NE5       30.10F
LUBBOCK        CLOUDY    62  60  93 SW13      30.18R
SAN ANGELO     LGT RAIN  72  65  78 SE5       30.16F
SAN ANTONIO    PTCLDY    72  66  81 NE3       30.14S
WACO           CLOUDY    70  66  87 N3        30.13S
WICHITA FALLS  NOT AVBL
$$
...OTHER LOCATIONS IN NEW MEXICO...

CITY           SKY/WX    TMP DP  RH WIND       PRES   REMARKS
ALAMAGORDO     MOCLDY    64  57  77 S3        30.18S
ALBUQUERQUE    MOCLDY    66  52  60 SE3       30.22S
CANNON AFB     CLOUDY    62  62  99 S15       30.21F
CLOVIS           N/A     63  57  82 SW16      30.23S
HOLLOMAN AFB   MOCLDY    68  58  70 S10       30.16S
ROSWELL        CLOUDY    62  58  86 S10       30.19F
RUIDOSO        CLOUDY    55  55 100 CALM      30.33F FOG
SANTA FE       PTCLDY    61  52  72 CALM      30.26F
TRUTH OR CONSE CLOUDY    69  56  62 SE9       30.19S
TUCUMCARI      CLOUDY    66  58  75 SW14      30.17R
$$

USA.gov is the U.S. government's official web portal to all federal, state and local government web resources and services.